Skip Page Navigation
NASA JPL Caltech
NASA Logo - Jet Propulsion Laboratory + View the NASA Portal
+ Center for Near-Earth Object Studies
JPL Home Earth Solar System Stars & Galaxies Technology
JPL Solar System Dynamics
BODIES ORBITS EPHEMERIDES TOOLS PHYSICAL DATA DISCOVERY FAQ SITE MAP
IMPORTANT: The SSD Announcement email list is now available. Major changes are coming in the near future, including possible hostname and/or URL changes. To be notified of such changes, subscribe to this email list.

Please visit this page for more details.


JPL Small-Body Database Browser
Search: [ help ]  
413209 (2003 FF35)
Classification: Main-belt Asteroid          SPK-ID: 2413209
Ephemeris | Orbit Diagram | Orbital Elements | Mission Design | Physical Parameters | Discovery Circumstances | Close-Approach Data ]

[ show orbit diagram ]
Orbital Elements at Epoch 2458600.5 (2019-Apr-27.0) TDB
Reference: JPL 16 (heliocentric ecliptic J2000)
 Element Value Uncertainty (1-sigma)   Units 
e .1879423591435137 7.5329e-08  
a 2.646638885516452 1.994e-08 au
q 2.14922332957153 1.9242e-07 au
i 4.48931119963362 8.5142e-06 deg
node .1275534332672208 6.3383e-05 deg
peri 162.6220535745612 6.6737e-05 deg
M 279.8977524045656 2.0628e-05 deg
tp 2458950.431196579914
(2020-Apr-10.93119658)
9.2544e-05 TDB
period 1572.680349807678
4.31
1.7773e-05
4.866e-08
d
yr
n .2289085636785785 2.5869e-09 deg/d
Q 3.144054441461374 2.3688e-08 au
  Orbit Determination Parameters
   # obs. used (total)      186  
   data-arc span      5706 days (15.62 yr)  
   first obs. used      2003-03-23  
   last obs. used      2018-11-05  
   planetary ephem.      DE431  
   SB-pert. ephem.      SB431-N16  
   condition code      0  
   norm. resid. RMS      .5842  
   source      ORB  
   producer      Otto Matic  
   solution date      2019-Jul-13 17:29:14  

Additional Information
 Earth MOID = 1.15812 au 
 Jupiter MOID = 1.83575 au 
 T_jup = 3.363 
[ hide covariance matrix ]
Orbital Elements at Epoch 2456960.5 (2014-Oct-30.0) TDB
Reference: JPL 16 (heliocentric ecliptic J2000)
 Element Value Uncertainty (1-sigma)   Units 
e .1885270770161298 7.5428e-08  
q 2.146595653597791 1.9273e-07 au
tp 2457379.035054066789
(2015-Dec-22.53505407)
8.1788e-05 TDB
node .1387779219528475 6.3376e-05 deg
peri 162.843283390698 6.6679e-05 deg
i 4.491015209934448 8.5144e-06 deg
  Orbit Determination Parameters
   # obs. used (total)      186  
   data-arc span      5706 days (15.62 yr)  
   first obs. used      2003-03-23  
   last obs. used      2018-11-05  
   planetary ephem.      DE431  
   SB-pert. ephem.      SB431-N16  
   condition code      0  
   norm. resid. RMS      .5842  
   source      ORB  
   producer      Otto Matic  
   solution date      2019-Jul-13 17:29:14  

Additional Information
 Jupiter MOID = 1.83575 au 
 T_jup = 3.363 
Orbit Covariance (6×6)
  e q tp node peri i
e 5.689316302131085E-15 -1.449749969846517E-14 3.669592065810846E-12 -9.267794801592821E-15 8.320368173933194E-13 1.826806074957548E-16
q -1.449749969846517E-14 3.714657156635197E-14 -9.080597924043218E-12 2.564369128198195E-14 -2.069607629597179E-12 3.743903565980492E-16
tp 3.669592065810846E-12 -9.080597924043218E-12 6.689213239599485E-9 -7.413706099728743E-12 1.700966357734172E-9 2.636615002870253E-12
node -9.267794801592821E-15 2.564369128198195E-14 -7.413706099728743E-12 4.016514368445186E-9 -4.005203253122367E-9 1.237824195938145E-10
peri 8.320368173933194E-13 -2.069607629597179E-12 1.700966357734172E-9 -4.005203253122367E-9 4.446142396291782E-9 -1.227179190583673E-10
i 1.826806074957548E-16 3.743903565980492E-16 2.636615002870253E-12 1.237824195938145E-10 -1.227179190583673E-10 7.249538241258531E-11

Ephemeris | Orbit Diagram | Orbital Elements | Mission Design | Physical Parameters | Discovery Circumstances | Close-Approach Data ]

Physical Parameter Table
Parameter Symbol Value Units Sigma Reference Notes
absolute magnitude H 16.8   n/a MPO419032  

413209 (2003 FF35)          Discovered 2003-Mar-23 by Spacewatch at Kitt Peak
Reference: Last Updated: 2014-11-10

[ show close-approach data ]
Ephemeris | Orbit Diagram | Orbital Elements | Mission Design | Physical Parameters | Discovery Circumstances | Close-Approach Data ]
ABOUT SSD CREDITS/AWARDS PRIVACY/COPYRIGHT GLOSSARY LINKS
FirstGov 2019-Dec-12 06:57 UT
(server date/time)  
NASA Home Page
Site Manager:   Ryan S. Park
Webmaster  Alan B. Chamberlin